STAR ONE C3

Last updated on Wed Mar 11 2026 00:02:53 GMT+0000 (Coordinated Universal Time)

1 38991U 12062A 26069.38030892 -.00000247 00000+0 00000+0 0 9999 2 38991 0.0142 212.1712 0002402 160.8041 216.9711 1.00270803 48777
UTC large
Height (km)
Speed (km/s)
/
Latitude / Longitude
Inclination (degrees)
Orbital Period (minutes)
Azimuth
Elevation
Range (km)
Doppler Factor

Next 0 passes for location: London (51.5072 / 0.1276)

Sorry there are no passes over London.